Temp
3 3 4 3 4 4 4 4 4 4 4 4 4 4 4 4 4 4 5 6 7 7 8 11 11 10 11 9 8 9 9 9 8 9 10 10 11 11 12 12 10 10 9 8 9 10 8 11 10 8 4 6 5 4
4 3 4 4 4 4 4 4 4 4 4 4 4 4 4 4 4 4 4 6 7 7 7 9 10 11 11 12 9 9 9 10 9 8 9 10 10 9 10 9 12 9 11 8 7 6 7 7 5 6 5 5 6 5
4 3 3 3 4 4 4 4 4 4 4 4 4 4 4 5 6 5 5 8 8 6 6 7 8 11 12 13 13 8 9 11 10 9 9 10 11 8 9 10 9 11 11 7 7 7 6 6 6 6 5 5 5 5
4 3 3 2 3 4 4 4 4 4 4 4 5 5 5 6 6 6 7 8 9 7 5 7 11 11 11 12 13 12 11 11 10 9 9 10 9 10 10 10 9 10 9 6 6 7 6 5 5 5 4 4 4 4
3 3 2 3 4 4 3 4 4 3 3 4 4 5 6 6 7 7 8 9 9 7 6 7 10 11 11 11 11 12 11 9 8 7 6 7 8 9 10 9 7 10 7 4 4 5 4 4 5 5 3 3 3 3
3 3 2 3 3 4 3 3 3 3 3 4 4 5 6 6 7 8 3 9 9 11 6 5 8 9 11 11 10 10 10 9 8 7 5 7 9 8 6 6 9 8 7 6 4 5 4 4 5 5 5 4 3 2
3 2 2 3 3 3 3 3 3 3 4 4 5 6 7 8 8 6 5 7 9 11 5 5 6 8 10 10 8 8 9 8 8 8 8 8 8 8 6 6 7 6 6 5 5 5 3 4 3 4 2 2 2 1
2 2 3 4 3 3 4 3 3 3 4 5 5 6 6 7 8 7 7 8 9 10 8 4 5 6 9 7 6 7 7 7 7 8 8 7 7 7 6 7 7 6 5 4 6 5 3 3 4 3 2 1 0 -1
2 3 3 3 3 3 2 3 3 4 5 5 6 6 7 6 5 7 8 10 10 9 5 4 5 4 8 7 6 6 6 4 6 5 7 7 6 5 7 7 6 6 5 6 6 4 3 2 2 1 1 1 -0 -1
3 3 3 3 3 2 3 3 3 4 5 5 6 4 2 5 6 7 9 4 5 7 7 6 6 4 6 3 5 4 5 3 4 6 6 4 5 7 8 7 7 5 5 6 3 3 2 1 0 1 1 1 0 -0
3 3 3 3 2 3 2 3 3 4 5 5 1 2 5 5 7 4 4 4 5 6 7 8 6 5 7 4 3 4 2 4 4 5 5 4 5 5 7 6 6 5 5 4 4 3 2 2 1 0 0 1 -0 -1
3 3 2 3 2 2 2 2 3 3 4 5 4 4 5 5 4 5 4 5 6 6 5 5 5 6 5 5 3 3 5 3 6 5 3 5 5 6 6 5 4 3 4 4 4 3 3 2 2 1 0 -1 -3 -4
2 2 3 2 2 3 3 3 4 4 4 5 4 2 3 2 2 4 3 5 4 4 4 4 3 4 5 4 2 2 3 3 5 2 4 5 4 5 5 4 3 4 4 4 2 3 3 2 2 1 -2 -3 -4 -5
2 2 2 2 2 3 3 4 3 4 5 2 3 1 1 1 2 4 4 3 3 3 3 3 3 4 3 3 2 2 3 4 3 3 5 3 4 3 2 2 2 1 0 -2 -3 -2 -2 -2 -3 -2 -1 -3 -4 -7
2 2 1 1 1 2 3 4 4 5 5 2 3 2 1 2 1 2 2 2 2 2 2 3 4 5 3 2 5 3 3 4 4 4 5 1 3 2 2 2 -0 -2 -3 -5 -4 -5 -5 -5 -5 -6 -5 -4 -5 -7
1 1 2 2 3 3 3 4 4 5 4 2 2 2 2 1 1 3 2 1 1 2 2 3 5 4 4 3 5 4 5 4 4 4 3 1 0 -0 -0 -2 -3 -3 -3 -4 -4 -5 -5 -5 -6 -7 -7 -6 -6 -7
2 1 3 3 3 4 4 5 5 3 2 3 2 2 2 1 2 2 2 1 3 3 4 4 5 6 5 4 5 4 3 4 4 2 -0 1 -0 -2 -3 -4 -4 -3 -3 -4 -5 -5 -6 -6 -6 -8 -9 -8 -8 -8
1 2 3 3 4 4 5 6 3 2 2 2 1 1 1 2 1 1 2 1 2 3 2 4 4 6 4 5 3 3 3 0 2 1 1 1 -1 -2 -3 -4 -3 -3 -3 -4 -4 -6 -7 -7 -8 -8 -8 -8 -9 -9
2 2 2 3 3 4 3 4 4 2 1 1 1 0 0 1 0 1 1 2 2 2 2 3 4 4 4 2 3 2 2 2 1 0 -1 0 0 -2 -3 -3 -3 -3 -4 -5 -6 -7 -7 -7 -7 -7 -7 -8 -9 -9
2 3 4 5 5 6 4 2 6 3 2 1 1 1 0 -0 -1 -1 -0 1 2 2 3 3 3 1 1 0 0 0 1 0 0 -0 -1 -2 -1 -1 -3 -4 -4 -4 -4 -5 -6 -6 -6 -7 -6 -6 -6 -7 -8 -8
3 3 4 4 5 5 3 3 3 3 2 1 2 2 0 0 0 1 1 2 1 1 1 1 0 -0 -0 -0 -1 -2 -1 -2 -1 -1 -0 -2 -2 -2 -2 -3 -3 -3 -5 -5 -6 -5 -5 -6 -6 -5 -5 -5 -6 -6
1 2 3 3 3 3 1 4 3 3 2 1 2 2 0 -1 -1 -0 1 0 0 -0 -0 -1 -3 -4 -3 -2 -2 -2 -2 -3 -1 0 -0 -1 -3 -3 -3 -3 -3 -3 -4 -4 -5 -5 -5 -4 -4 -5 -5 -4 -4 -5
2 2 2 3 0 -0 -0 3 3 3 1 2 2 2 -0 -1 -0 1 -2 -0 -1 -1 -1 -2 -1 -0 -1 -0 -0 -1 -1 -1 -1 -0 1 1 0 -0 -1 -2 -2 -2 -3 -2 -2 -3 -3 -3 -4 -3 -4 -4 -4 -5
3 1 -1 -1 -0 -2 -0 -0 2 2 1 2 2 1 1 -0 0 -2 -1 -1 -2 -2 -4 -3 -2 -3 -1 -1 -2 -2 -2 -1 -1 -1 -0 0 -1 -0 1 -0 -1 -1 -1 -2 -2 -2 -2 -3 -3 -3 -3 -4 -4 -5
-0 -1 -1 -2 -0 -1 -1 -0 -0 1 -1 0 0 -1 -1 -1 -2 -2 -1 -1 -3 -4 -6 -5 -4 -3 -4 -3 -3 -3 -4 -4 -4 -3 -2 -1 -1 -1 -1 -0 -1 -1 -2 -2 -2 -3 -3 -3 -3 -4 -4 -4 -5 -5
-3 -1 -0 -0 -1 -0 0 -1 -2 -2 -1 -1 -1 -0 -1 -2 -2 -2 -2 -4 -6 -7 -7 -6 -6 -6 -5 -4 -6 -5 -5 -5 -4 -4 -4 -3 -3 -3 -3 -3 -3 -3 -2 -2 -3 -3 -3 -4 -4 -4 -5 -5 -5 -5
-2 -1 1 2 1 2 -0 0 1 -1 -1 -2 -2 -0 1 -3 -3 -5 -6 -8 -7 -8 -7 -6 -6 -6 -6 -6 -5 -5 -5 -5 -5 -5 -5 -5 -5 -5 -5 -5 -5 -5 -4 -4 -4 -4 -4 -4 -4 -4 -5 -5 -5 -5
0 0 -2 -2 -1 -0 -1 -1 -1 -2 -1 0 -0 -1 -1 -4 -5 -8 -9 -9 -8 -8 -7 -7 -7 -7 -7 -6 -6 -6 -6 -5 -5 -5 -5 -5 -5 -6 -6 -6 -6 -6 -6 -5 -5 -5 -5 -5 -5 -5 -5 -5 -5 -5
-1 -0 0 -2 -2 -0 -1 -1 -1 -1 -2 -1 -1 -2 -6 -9 -10 -9 -9 -9 -9 -8 -8 -8 -9 -8 -8 -7 -7 -8 -8 -8 -8 -7 -5 -5 -6 -7 -7 -6 -6 -6 -6 -6 -6 -6 -6 -6 -6 -5 -5 -5 -5 -5
-1 1 -1 -2 -3 -2 -2 -2 -2 -3 -4 -5 -6 -7 -9 -10 -11 -11 -11 -10 -10 -10 -10 -10 -10 -10 -10 -10 -9 -10 -10 -11 -11 -11 -11 -9 -8 -8 -8 -8 -8 -7 -7 -6 -6 -6 -6 -6 -6 -6 -6 -6 -6 -6
-1 0 -0 -2 -1 -1 -2 -3 -3 -3 -3 -5 -7 -8 -10 -12 -12 -13 -13 -12 -11 -12 -12 -12 -12 -12 -11 -11 -11 -10 -10 -11 -11 -11 -11 -10 -10 -9 -9 -9 -9 -8 -8 -7 -7 -7 -6 -7 -7 -7 -7 -8 -8 -9
-1 -1 -1 -1 -2 -3 -3 -4 -5 -5 -6 -7 -8 -9 -10 -10 -12 -13 -14 -14 -13 -13 -14 -14 -13 -13 -12 -12 -12 -11 -11 -12 -12 -12 -11 -11 -11 -10 -10 -10 -9 -9 -9 -9 -9 -8 -8 -9 -9 -10 -11 -12 -12 -12
-2 -2 -2 -2 -2 -3 -3 -4 -3 -3 -4 -6 -8 -9 -12 -12 -13 -13 -15 -14 -14 -15 -15 -15 -14 -13 -13 -13 -12 -12 -12 -12 -12 -12 -12 -12 -12 -11 -11 -10 -11 -10 -10 -10 -11 -11 -11 -11 -12 -13 -13 -14 -14 -15
Height
665 670 674 679 682 687 692 696 700 703 705 708 709 709 709 709 708 708 707 704 706 707 709 710 713 719 718 728 737 740 745 749 754 762 763 755 753 752 754 759 769 777 787 795 791 790 803 789 796 807 822 820 824 828
663 668 672 675 678 685 691 695 700 702 705 707 709 709 709 709 709 710 707 701 703 709 716 716 718 719 722 720 729 739 741 742 748 759 755 748 754 754 756 773 759 782 770 791 797 806 804 802 807 811 814 820 824 829
662 666 669 674 677 685 690 695 699 703 706 708 710 710 709 709 709 711 705 705 707 713 721 723 726 721 717 719 723 737 739 738 741 743 747 747 746 756 764 764 769 766 766 791 792 805 807 811 813 815 817 822 825 828
660 665 669 673 677 684 690 695 699 703 706 708 709 710 711 710 709 706 705 705 705 710 726 730 723 721 723 722 725 727 733 736 738 742 747 750 753 747 756 756 767 768 775 791 798 803 809 815 817 820 823 824 828 832
660 664 669 672 678 684 690 696 700 703 707 708 709 709 710 709 708 707 706 705 706 711 728 733 730 732 730 728 729 732 734 739 744 750 756 760 753 753 755 759 776 766 782 796 805 798 803 813 817 823 827 829 831 835
659 664 667 672 679 686 691 697 700 704 707 709 709 710 710 711 712 711 713 710 709 713 722 742 739 737 734 733 734 737 738 740 744 752 760 757 753 760 774 781 775 774 776 778 792 794 800 810 817 823 826 829 833 836
659 663 667 674 681 688 694 698 702 706 708 710 712 711 711 711 712 712 719 718 713 714 724 741 748 743 740 740 742 743 741 744 746 751 756 759 759 759 771 780 779 781 783 786 790 795 810 812 818 823 828 831 835 839
659 662 669 677 683 690 696 700 704 708 710 712 714 713 713 712 713 717 718 716 714 714 722 747 752 752 745 750 755 748 751 751 754 756 757 762 763 763 777 774 778 782 789 793 794 798 805 812 819 824 829 833 838 842
659 665 673 680 687 693 699 703 707 710 713 716 716 715 714 715 719 719 717 716 716 721 733 744 751 761 748 752 755 757 757 772 762 767 762 764 771 776 770 773 778 783 787 792 797 803 809 815 821 825 828 832 837 841
661 669 677 685 691 697 702 707 710 713 716 717 718 718 725 723 722 721 721 723 724 724 727 739 740 755 750 759 764 768 766 774 779 770 764 775 775 764 762 768 774 782 786 791 800 807 811 817 821 824 827 829 833 838
666 674 682 688 695 701 706 710 713 716 718 720 723 727 725 725 725 728 735 737 736 737 738 738 742 748 747 763 770 765 776 772 778 773 775 778 776 769 765 769 774 780 786 792 798 803 808 813 817 822 825 828 831 836
672 680 686 694 700 705 709 714 718 721 721 722 722 726 727 729 732 736 742 739 735 743 742 747 748 749 752 753 767 768 769 775 767 768 779 775 768 762 765 770 776 780 785 791 796 801 806 811 815 819 823 827 831 835
679 686 693 698 704 709 714 718 719 720 722 723 725 730 732 738 745 741 750 741 748 746 745 747 755 753 756 759 769 772 777 780 768 783 779 768 765 764 767 772 778 781 785 790 795 799 803 808 813 817 822 826 830 835
687 693 699 704 709 713 717 719 721 722 722 725 731 748 745 749 747 743 741 745 747 747 747 749 755 757 761 766 771 779 774 771 780 785 767 768 765 768 771 774 779 785 788 793 799 802 805 808 813 817 820 825 829 834
694 700 705 711 715 719 721 723 723 723 726 733 736 748 753 749 750 750 748 748 749 747 749 753 753 755 765 771 763 772 779 775 772 770 762 768 767 769 773 777 781 787 791 796 801 805 808 811 813 818 822 824 828 832
702 709 715 718 721 724 726 726 726 726 731 740 744 749 750 752 755 752 754 756 752 750 749 752 754 762 765 767 765 771 765 769 771 764 765 768 771 774 776 779 783 787 792 798 802 805 809 811 814 818 822 824 827 830
709 713 719 722 725 726 726 727 730 736 742 746 753 752 752 756 756 756 755 756 753 754 754 755 756 755 759 764 761 761 769 766 766 772 771 770 774 777 779 782 785 789 794 799 802 806 810 812 814 818 821 823 825 828
715 719 723 726 728 729 730 731 735 742 749 755 757 759 757 757 758 758 758 757 757 758 759 761 760 755 764 758 770 770 769 773 772 775 775 775 778 779 781 784 787 790 794 798 801 805 809 811 812 814 818 821 823 826
722 726 730 731 732 732 733 736 739 751 759 760 760 759 760 761 760 760 759 759 758 759 760 762 762 764 766 774 772 773 773 772 776 779 780 780 781 783 784 787 790 792 794 797 800 803 806 808 809 811 814 818 819 822
729 732 734 733 733 733 738 743 741 750 758 762 760 762 763 766 766 765 763 761 761 763 765 767 772 777 777 780 781 780 778 777 777 779 781 782 783 784 786 788 791 793 795 798 801 804 805 807 808 809 811 813 816 818
735 736 736 735 736 737 743 746 750 754 758 762 760 762 768 767 768 767 766 763 768 770 774 778 781 783 782 783 784 784 782 781 780 780 778 781 782 785 787 789 791 793 795 797 799 801 802 802 804 806 807 808 810 813
740 740 740 741 743 746 750 750 752 752 759 762 762 763 772 775 774 772 767 771 774 780 781 784 786 786 785 784 784 784 784 782 780 779 778 778 782 784 785 787 789 790 793 795 797 798 798 799 801 803 805 806 807 810
745 746 747 748 752 757 763 754 756 756 767 765 764 768 773 774 773 770 779 776 782 784 785 787 785 784 784 783 783 783 783 781 780 780 778 778 779 780 782 784 785 788 790 791 793 794 794 795 797 799 801 802 804 806
750 752 756 758 758 768 761 762 755 759 763 765 767 772 770 774 774 780 781 780 785 788 789 788 787 785 784 784 785 786 784 783 782 781 780 779 779 779 779 780 782 784 786 788 789 789 789 791 792 794 797 799 801 803
757 762 762 768 761 767 767 765 767 764 772 770 771 775 776 774 784 784 777 783 789 791 794 792 790 790 789 788 788 787 787 786 785 784 781 780 779 779 779 779 781 782 784 786 786 786 786 787 789 791 793 795 797 799
767 763 763 761 765 763 763 772 773 773 770 772 773 772 772 779 782 781 785 793 796 797 797 796 796 794 792 792 791 790 789 788 786 784 784 783 782 782 781 781 782 783 784 784 784 784 784 785 786 788 790 792 794 796
768 765 758 755 756 755 763 761 759 766 771 776 774 772 771 785 784 792 797 800 800 800 798 797 796 795 794 793 791 790 789 787 786 786 786 785 785 784 784 784 784 785 783 783 783 783 783 783 783 785 787 788 790 792
760 759 769 765 762 760 766 766 768 770 767 763 765 772 774 784 794 801 803 803 801 800 798 798 797 796 795 793 792 790 788 787 784 784 786 787 787 787 787 786 786 785 784 783 783 782 783 783 783 783 784 785 787 788
763 761 762 768 767 763 765 766 765 768 771 768 770 775 790 800 804 805 805 804 802 801 800 799 799 797 796 794 793 793 792 790 788 788 785 788 789 790 789 788 787 786 785 784 783 782 782 782 782 782 782 783 785 786
764 761 764 767 772 769 768 768 769 773 775 777 782 790 798 805 809 807 807 806 805 805 804 803 802 801 800 799 798 798 797 796 795 795 795 795 795 794 791 789 788 786 785 784 783 782 782 782 782 782 783 783 784 785
763 763 764 764 763 765 769 771 773 774 775 779 782 787 798 806 810 811 810 809 809 808 807 807 806 806 805 803 802 801 801 801 799 798 797 796 795 794 792 791 789 787 786 784 783 781 780 781 781 782 783 784 784 786
764 764 762 761 766 770 771 772 773 774 776 781 787 791 798 800 809 815 816 813 812 812 811 811 810 809 808 807 806 805 804 803 801 800 798 797 796 795 793 792 791 789 787 785 784 783 782 782 783 783 786 787 789 791
764 764 764 765 765 768 769 770 769 769 773 781 788 792 799 802 812 816 817 816 815 814 813 811 810 809 810 808 808 807 806 805 804 803 801 800 798 796 795 794 793 791 790 789 788 788 788 788 789 790 791 793 795 796
Wind_Speed
11 14 14 16 18 22 21 18 15 13 12 9 7 6 5 6 9 11 9 7 4 3 2 5 7 9 3 7 5 6 4 2 2 3 5 4 3 6 4 6 7 4 4 3 3 2 4 8 8 5 5 8 9 8
14 17 13 23 17 23 20 19 16 13 11 9 7 5 6 5 7 9 8 5 7 4 6 22 16 13 1 10 8 4 6 5 4 3 2 1 1 3 5 3 5 3 4 4 2 3 4 9 9 9 7 9 9 8
16 17 12 21 24 23 22 20 17 13 12 9 7 6 5 9 6 9 5 11 24 8 7 6 2 12 11 25 24 4 1 3 2 3 2 1 2 3 3 2 4 3 4 5 5 6 10 9 8 9 8 8 7 5
17 20 13 8 23 24 23 20 16 14 12 10 9 7 7 7 9 10 4 1 3 4 3 4 14 12 14 17 13 9 7 5 4 2 2 2 2 2 2 4 4 4 4 6 6 12 12 9 7 7 8 8 10 11
15 23 14 13 28 23 22 20 17 15 12 9 9 6 6 5 4 6 14 15 8 3 3 7 15 15 15 17 17 14 11 4 2 2 3 1 2 4 2 4 2 1 6 4 4 11 6 10 10 10 6 6 7 9
16 20 15 23 28 25 22 18 16 15 13 12 9 4 2 2 4 1 4 14 18 17 4 3 5 6 15 16 13 6 2 2 2 3 1 2 2 3 3 3 4 6 6 6 4 6 13 13 11 14 8 7 11 12
21 18 15 32 28 25 22 19 19 17 15 15 6 3 3 1 3 5 4 3 9 10 3 3 2 5 3 6 4 4 8 2 3 2 2 2 2 2 2 3 7 9 11 14 15 16 10 8 9 12 14 16 17 16
21 14 32 29 28 27 23 20 18 17 16 12 11 8 7 8 9 6 6 11 8 4 4 3 2 3 5 2 3 3 3 3 4 1 3 3 2 2 3 12 11 12 14 12 7 7 9 15 13 11 17 17 11 7
16 32 32 32 29 25 25 21 17 19 20 13 10 5 5 7 4 3 7 11 11 4 3 3 4 3 0 2 2 4 3 3 3 2 1 2 0 1 10 14 13 14 6 11 11 13 13 12 10 8 8 9 10 8
28 35 33 31 27 27 25 22 20 21 17 10 4 6 3 4 3 5 6 4 4 3 4 3 3 2 4 1 2 2 2 2 1 3 2 2 1 2 9 12 14 11 12 12 13 13 12 10 9 8 7 9 16 13
35 34 32 30 30 25 22 22 24 18 12 4 2 1 1 4 4 3 3 3 1 3 3 1 3 5 1 3 2 1 2 0 2 3 3 1 2 3 7 10 13 10 15 12 12 10 14 12 10 8 7 12 20 20
36 34 31 32 28 27 26 25 19 5 3 5 8 5 2 2 2 4 1 3 3 3 2 3 3 3 2 3 3 1 2 2 1 1 3 2 3 5 10 9 10 12 13 13 18 15 19 19 20 17 17 18 18 22
37 35 32 30 28 27 26 15 8 14 14 4 3 3 2 3 4 4 3 1 2 1 1 2 2 3 3 3 2 3 3 3 3 2 3 3 4 5 9 10 8 14 18 15 12 16 21 21 23 24 20 21 24 22
36 33 33 32 29 28 18 16 9 5 3 3 3 4 2 3 3 3 3 2 1 2 3 3 2 3 1 3 2 4 3 2 1 1 4 3 5 7 7 7 8 8 8 13 14 19 20 22 22 24 25 26 25 22
34 33 33 31 28 22 15 8 9 7 4 3 4 3 3 2 3 1 2 2 4 2 3 2 3 3 1 3 1 3 3 2 3 3 0 2 6 7 7 6 7 8 8 11 17 17 19 23 23 21 23 22 20 21
36 30 28 26 24 23 11 6 5 4 4 3 5 3 1 4 2 3 3 2 3 2 2 2 2 3 1 3 2 4 4 3 2 1 1 3 3 4 5 6 8 16 17 17 18 20 20 21 22 21 19 18 20 21
20 11 30 28 17 11 8 6 5 4 3 3 2 2 2 4 3 2 1 1 3 2 2 1 3 3 2 2 1 1 2 1 3 3 2 3 4 5 6 12 16 19 19 19 18 16 17 17 17 19 17 19 19 19
21 28 28 19 11 7 3 3 3 4 5 4 3 3 2 2 2 2 3 3 3 2 2 1 1 1 2 2 2 1 2 2 5 4 3 4 6 11 13 13 17 19 19 18 17 16 17 20 19 18 19 20 18 17
26 20 15 12 7 3 3 5 5 4 3 1 1 2 2 2 2 2 1 2 1 1 2 3 2 2 3 3 4 4 4 2 2 2 2 4 6 11 14 14 15 15 16 18 19 17 18 22 17 19 20 21 19 20
24 19 10 7 7 3 3 3 4 4 2 1 1 1 2 2 0 2 3 2 1 1 3 2 3 2 2 2 3 3 3 3 2 2 2 2 4 6 10 11 10 12 14 15 15 15 16 18 19 18 20 21 20 20
17 11 10 9 6 9 3 2 4 3 3 2 2 2 1 1 1 1 1 2 3 2 3 2 3 2 3 7 8 7 6 9 3 2 1 3 9 8 8 9 10 12 11 14 13 17 18 16 19 21 19 22 23 19
5 9 7 9 7 5 4 8 3 1 3 2 1 3 2 1 1 2 2 3 2 2 2 2 1 1 3 2 6 5 5 8 8 8 6 14 3 5 8 12 11 9 10 16 17 17 19 18 16 18 20 18 20 20
7 6 5 6 4 4 2 9 3 3 3 1 1 2 0 1 1 3 2 2 2 4 6 2 4 4 3 4 5 2 5 8 10 11 5 1 7 12 14 15 14 12 9 13 16 18 17 16 18 16 19 19 18 19
6 4 3 3 3 0 2 3 1 3 3 2 2 0 1 2 1 2 1 2 2 8 5 8 11 4 7 7 3 6 11 11 11 12 4 3 5 4 7 12 14 13 12 9 12 15 15 16 19 18 17 19 19 19
3 4 3 2 0 2 2 2 3 2 1 1 2 2 1 2 1 3 2 2 4 5 3 10 9 7 2 3 7 10 15 15 11 7 12 8 7 4 2 4 6 8 8 11 10 9 13 15 18 19 18 20 19 19
4 2 2 2 1 2 3 3 3 4 2 1 2 2 1 2 1 0 2 3 2 3 4 4 4 3 2 8 3 8 12 13 11 7 10 14 12 10 6 1 1 3 4 7 9 8 10 14 16 18 18 19 18 16
2 1 2 1 1 0 2 1 2 3 2 3 2 3 3 2 1 2 2 5 2 7 8 8 7 7 6 9 10 11 12 9 6 6 4 7 7 7 9 8 7 6 4 2 4 5 7 9 15 15 17 18 18 17
1 2 1 2 2 2 1 1 3 3 1 2 3 3 2 1 2 2 3 5 7 8 7 8 9 8 11 12 8 11 11 13 9 1 5 11 12 11 10 9 9 8 4 4 5 6 6 6 5 8 15 15 15 14
0 1 1 1 2 0 1 1 2 2 2 2 2 2 3 3 4 5 6 9 8 9 10 10 13 13 13 16 15 15 16 18 15 9 9 3 6 15 12 9 8 7 6 5 6 5 4 4 4 4 5 11 8 7
1 0 1 2 2 1 2 3 2 2 2 3 4 3 3 3 9 10 13 13 11 11 12 12 12 15 13 14 10 15 19 18 17 13 4 6 9 10 11 11 11 9 8 7 8 6 4 4 4 3 1 2 2 2
1 1 2 2 0 2 3 4 3 3 2 2 4 3 3 3 5 12 16 16 10 12 14 13 13 14 15 14 13 10 9 15 13 12 9 7 7 10 13 12 10 10 9 8 7 7 3 1 2 4 1 10 15 17
2 2 2 1 2 2 3 2 3 3 2 2 2 3 3 3 3 3 12 13 13 12 11 11 11 11 11 9 9 12 7 11 13 13 13 12 10 8 8 9 10 9 10 12 13 12 13 17 20 22 22 22 21 21
1 0 0 1 2 3 1 1 2 1 4 3 3 2 3 3 3 3 7 10 10 9 11 9 6 3 6 5 7 10 10 9 11 11 12 13 13 11 8 9 11 10 11 13 16 17 18 20 22 22 21 21 20 18
Wind_Direction
202 198 202 204 206 188 187 192 190 183 187 191 195 192 237 289 345 348 313 236 225 118 92 174 132 175 114 133 145 180 79 338 58 131 187 230 189 202 118 151 157 147 141 181 196 142 181 122 126 167 168 103 111 100
195 194 204 197 205 187 186 186 182 184 189 181 174 187 249 268 285 321 258 152 183 93 111 97 66 69 176 167 130 177 157 161 164 159 222 197 1 91 124 153 138 154 187 144 99 138 84 48 96 114 117 121 126 131
187 197 215 199 192 183 180 177 177 179 179 170 177 189 224 266 302 324 292 117 108 97 57 66 344 43 88 155 151 128 100 141 95 168 150 180 87 107 142 166 98 68 104 109 102 119 103 93 81 99 101 120 128 122
183 197 201 210 173 176 177 175 176 177 177 177 176 150 202 249 304 10 94 276 250 111 95 40 79 41 71 112 102 106 110 77 100 78 103 130 112 41 52 124 110 175 93 121 82 128 114 114 106 94 85 91 87 79
185 191 203 193 168 169 165 166 171 170 167 158 156 156 166 298 8 71 49 38 27 115 112 108 70 63 82 88 90 101 103 94 75 39 47 62 44 49 44 77 28 118 156 141 198 160 132 145 130 141 117 110 120 121
192 187 203 179 169 167 162 160 158 157 154 140 137 131 249 258 105 275 33 30 80 122 95 65 358 37 57 67 72 74 88 70 93 99 155 42 7 97 93 92 82 71 74 133 141 122 117 132 141 156 148 130 105 89
185 187 217 167 168 162 160 156 151 148 134 129 132 80 85 29 106 76 145 246 58 96 86 78 53 335 17 60 15 26 33 23 89 103 81 110 29 55 78 117 123 96 92 95 106 113 97 122 139 137 107 106 106 100
178 182 156 160 162 160 156 151 149 149 132 122 126 96 78 62 61 67 39 45 38 84 79 93 90 43 353 62 26 359 31 30 13 22 26 92 359 41 72 126 120 113 115 119 109 106 118 127 131 139 135 128 129 128
180 155 153 154 159 155 150 149 143 143 134 134 113 82 58 38 46 339 27 48 56 67 111 109 135 165 212 63 99 17 50 41 329 32 43 85 142 200 157 145 140 140 134 140 120 115 124 132 144 141 151 153 137 142
160 154 152 155 152 149 149 146 143 144 141 122 68 33 18 343 56 13 18 23 16 353 39 76 93 131 117 104 52 73 8 164 78 250 59 69 248 275 138 150 145 143 140 145 132 145 147 150 154 164 165 160 149 152
146 148 149 149 148 150 153 153 143 131 125 58 59 112 115 21 34 31 29 78 308 36 70 73 108 117 28 103 154 117 183 230 122 245 124 223 270 222 140 132 142 144 151 150 151 148 155 158 161 171 167 151 143 140
144 141 146 145 142 143 142 138 131 130 124 152 126 104 33 37 47 78 38 339 49 147 358 112 125 99 36 80 97 325 116 39 182 156 83 249 249 150 139 127 133 136 148 146 159 162 165 169 168 154 137 134 130 143
142 142 140 143 144 138 141 136 101 118 123 85 65 58 52 334 56 122 166 74 76 82 215 115 71 124 51 57 54 73 89 223 110 73 211 236 170 125 124 123 113 123 124 114 112 144 152 151 152 149 138 145 147 147
138 140 144 141 138 137 133 120 70 81 62 76 74 44 82 3 51 27 22 74 273 92 102 98 61 108 123 58 145 95 244 98 56 108 233 198 167 133 117 128 119 132 119 109 114 124 127 134 137 149 156 158 157 156
137 135 127 123 128 136 138 115 60 61 52 54 36 56 69 95 36 2 302 47 350 321 87 58 49 92 87 95 117 106 32 192 210 219 130 155 138 133 131 134 120 116 116 118 136 131 138 143 143 146 159 164 169 166
125 123 134 131 129 133 118 100 58 62 58 50 41 52 43 77 44 62 19 29 336 331 24 50 107 81 206 136 111 202 175 205 266 95 91 94 86 106 120 113 121 130 131 138 149 152 156 158 159 159 163 171 176 180
120 128 147 142 130 88 62 42 52 52 62 51 40 334 24 73 73 51 36 359 335 41 41 34 87 194 117 101 195 176 86 119 110 47 30 96 112 120 113 121 131 137 139 149 153 163 171 168 166 165 166 182 184 191
123 148 154 145 97 52 39 46 84 71 59 34 65 354 39 44 85 46 23 9 45 18 33 57 278 25 152 138 31 8 77 52 61 67 63 82 90 115 132 133 149 155 154 160 169 174 179 174 176 187 190 190 188 195
133 142 156 177 215 314 74 27 66 81 75 96 350 9 52 65 13 19 7 15 36 298 65 355 15 23 69 38 30 30 21 27 100 81 62 68 129 127 132 146 155 159 162 165 170 178 192 195 195 196 193 195 194 198
122 118 111 67 26 55 59 359 87 93 87 190 69 69 78 87 315 328 316 8 21 31 52 49 43 28 40 34 8 351 352 351 151 157 136 125 151 157 144 153 165 177 170 178 190 196 197 202 207 205 202 201 200 203
120 77 58 54 37 51 72 54 37 119 136 108 180 101 54 97 33 335 9 342 44 39 75 44 68 39 37 90 56 358 5 7 3 343 64 142 167 176 175 180 192 187 177 184 195 215 208 203 211 212 215 210 215 218
82 59 36 30 46 40 42 354 130 132 79 156 35 100 101 126 283 333 316 45 54 54 36 66 50 9 355 21 359 334 329 329 328 309 95 121 130 184 172 186 196 194 205 206 209 217 221 223 220 221 221 228 217 213
79 42 38 25 65 45 289 330 67 136 107 171 37 83 65 34 75 332 36 78 80 58 85 82 342 303 255 309 354 264 4 358 350 350 148 79 184 196 193 195 203 204 210 224 230 222 227 224 220 223 221 224 210 206
68 43 38 34 62 114 328 344 25 66 39 142 120 315 80 103 45 36 304 70 85 82 45 20 13 357 38 50 44 45 13 14 11 4 345 32 0 307 204 200 210 219 232 242 229 230 224 215 214 216 221 214 208 212
86 344 78 19 292 96 87 58 334 88 134 224 63 355 128 108 144 214 181 92 77 69 31 17 17 14 6 29 28 35 30 20 2 341 348 359 26 38 134 180 200 226 231 230 235 243 225 218 214 214 216 209 209 219
74 270 65 147 246 133 174 126 171 196 144 103 194 96 140 143 227 349 58 56 45 42 23 14 355 346 11 23 6 6 357 351 343 330 27 30 38 31 21 27 131 174 236 245 236 237 236 216 209 212 214 214 220 227
92 250 234 339 323 59 34 17 80 105 149 186 166 157 178 210 173 90 105 24 28 5 349 340 356 17 353 333 353 346 343 340 330 311 336 29 41 39 50 47 43 17 12 266 251 268 282 261 213 217 221 221 227 234
292 42 130 268 16 30 93 338 175 205 245 350 99 171 169 70 90 58 40 2 349 331 334 45 26 3 344 346 1 30 18 7 358 192 112 88 61 53 45 35 20 10 343 337 311 295 292 285 275 254 227 224 234 239
83 72 29 22 351 230 240 174 75 63 348 333 28 77 97 59 22 32 23 16 32 44 36 37 19 24 29 61 53 44 37 35 30 34 58 74 67 34 31 30 23 16 6 350 342 322 288 287 285 293 272 220 236 247
87 357 298 147 151 272 73 348 79 84 48 84 108 109 97 88 43 51 41 31 38 23 29 59 42 36 31 27 41 56 41 43 44 40 22 22 30 20 18 12 1 358 357 335 339 300 313 274 278 304 285 89 94 33
114 163 249 253 154 61 100 107 102 118 117 83 37 71 106 125 97 45 34 23 53 47 40 30 44 37 26 26 23 24 36 23 29 35 37 29 24 29 21 12 8 2 2 359 0 358 246 62 258 247 99 102 105 105
167 255 323 299 104 127 157 201 179 177 132 113 119 106 143 141 89 71 18 30 37 37 24 18 16 11 21 28 44 42 50 36 35 37 36 34 33 30 28 30 33 44 59 64 67 76 90 96 93 93 99 97 96 95
348 93 77 302 176 185 147 264 203 84 52 63 53 72 56 60 84 94 34 34 23 23 354 341 330 352 12 42 48 48 48 46 33 39 42 42 43 44 48 55 56 52 62 70 76 81 85 92 96 100 100 99 95 94